TimeCST,TemperatureF,Dew PointF,Humidity,Sea Level PressureIn,VisibilityMPH,Wind Direction,Wind SpeedMPH,Gust SpeedMPH,PrecipitationIn,Events,Conditions,WindDirDegrees,DateUTC
12:53 AM,34.0,28.9,82,30.12,10.0,NNE,15.0,-,N/A,,Overcast,30,2012-11-09 06:53:00
1:53 AM,33.1,28.0,82,30.11,10.0,NNE,15.0,-,N/A,,Overcast,30,2012-11-09 07:53:00
2:53 AM,32.0,28.0,85,30.11,10.0,NNE,17.3,24.2,N/A,,Overcast,30,2012-11-09 08:53:00
3:09 AM,32.0,26.6,80,30.06,10.0,NNE,19.6,-,N/A,,Overcast,30,2012-11-09 09:09:00
3:53 AM,32.0,27.0,82,30.10,10.0,NNE,17.3,24.2,N/A,,Overcast,30,2012-11-09 09:53:00
4:53 AM,30.9,28.0,89,30.10,10.0,NNE,16.1,-,N/A,,Overcast,30,2012-11-09 10:53:00
5:53 AM,30.9,27.0,85,30.09,10.0,NE,17.3,-,N/A,,Overcast,50,2012-11-09 11:53:00
6:53 AM,30.9,28.0,89,30.08,10.0,NE,16.1,-,N/A,,Overcast,40,2012-11-09 12:53:00
7:53 AM,30.9,28.0,89,30.09,10.0,NE,16.1,-,N/A,,Overcast,40,2012-11-09 13:53:00
8:53 AM,32.0,28.0,85,30.07,10.0,NE,16.1,-,N/A,,Overcast,50,2012-11-09 14:53:00
9:53 AM,34.0,28.9,82,30.04,10.0,NE,13.8,-,N/A,,Overcast,50,2012-11-09 15:53:00
10:53 AM,34.0,28.9,82,30.03,10.0,NE,16.1,-,N/A,,Overcast,40,2012-11-09 16:53:00
11:53 AM,35.1,30.0,82,30.02,10.0,NE,16.1,-,N/A,,Overcast,40,2012-11-09 17:53:00
12:43 PM,35.6,30.2,81,29.95,10.0,NE,13.8,21.9,N/A,,Overcast,40,2012-11-09 18:43:00
12:53 PM,36.0,30.0,79,29.99,10.0,NE,13.8,21.9,N/A,,Overcast,40,2012-11-09 18:53:00
1:53 PM,37.0,30.9,79,29.96,10.0,NE,17.3,21.9,N/A,,Overcast,40,2012-11-09 19:53:00
6:30 PM,39.2,32.0,75,29.87,10.0,NE,12.7,-,N/A,,Overcast,50,2012-11-10 00:30:00
6:53 PM,39.0,32.0,76,29.91,10.0,NE,12.7,-,N/A,,Overcast,40,2012-11-10 00:53:00
7:53 PM,39.9,33.1,77,29.89,10.0,NE,15.0,-,N/A,,Overcast,50,2012-11-10 01:53:00
8:53 PM,41.0,35.1,79,29.87,10.0,NE,12.7,-,N/A,,Overcast,50,2012-11-10 02:53:00
9:53 PM,39.9,36.0,86,29.84,10.0,ENE,12.7,-,N/A,,Overcast,60,2012-11-10 03:53:00
10:53 PM,42.1,36.0,79,29.82,8.0,ENE,11.5,-,N/A,,Overcast,70,2012-11-10 04:53:00